STARLINK-32023, 60197

Orbit data source: Space-Track

STARLINK-32023, 60197 is a payload satellite owned by SpaceX/Seattle (US) in LEO that was launched on Wed, 03 Jul 2024 UTC via an FALCON 9 launch vehicle from the Air Force Eastern Test Range (AFETR). Payloads include a variety of satellites, spacecraft, and rockets equipped with specific instruments for various scientific and technological missions. These include communications satellites like Starlink; space stations such as the ISS; scientific satellites like the Hubble; Earth observation satellites from companies like Planet Labs, Umbra, and HawkEye 360; GPS; miniature CubeSats for education and research; and military/defense satellites.

Loading next visibility...
STARLINK-32023 details
Identifier
60197, 2024-124Q
Orbit
LEO
Last TLE update2 days ago
Origin
Flag of USSpaceX/Seattle (US)
ManufacturerSpaceX/Seattle
MissionOperational spacecraft
Bus & MotorSTARLINK V2M, Unknown motor
Mass730 kg wet, ~700 kg dry
Launch date (UTC)
2024-07-03 (6 months ago)
Launch vehicle
FALCON 9
Launch site
Air Force Eastern Test Range (AFETR)
Object type
Payload
Rocket body
Debris
Shape & HBRUnknown
Radar Cross SectionLarge (>1 m²)

Expand to show TLE details & history

TLE from 2 days ago
0 STARLINK-32023
1 60197U 24124Q   24354.26182711 -.00115905  00000-0 -31164-2 0  9992
2 60197  53.1584 231.8251 0000887 178.4896 181.6111 15.37757434 27171
Epoch: 2024-12-19T06:17Z
Definitive object data (Epoch: 2024-12-19T06:17:01.862Z)
Latitude-0°
Longitude49.22312°
Altitude454.251 km
Speed7.641 km/s
True Right ascension15h 27m 18s
True Declination0° 00' 00"
Sunlit
Object was in daylight at TLE epoch
Visualization TLE readout
Latitude-16.23892°
Longitude26.0174°
Altitude459.262 km
Speed7.637 km/s
Apparent Right ascension17h 01m 58s
Apparent Declination-59° 48' 53"
Sunlit
Object is in daylight
Visualization observer readout
Local Sidereal Time11:49:49
Azimuth146.023° SSE
Elevation-28.341°
Doppler factor1
Orbital elements
Apogee altitude453.606 km
Perigee altitude452.394 km
Semi-major axis6,831.137 km
Eccentricity0.0000887
Inclination53.1584°
RAAN231.8251°
Arg. of periapsis178.4896°
True anomaly181.61081°
Mean anomaly181.6111°
Eccentric anomaly181.61096°
Mean motion3.84418 °/min
BSTAR-0.0031164
Orbital period93.65 mins
Loading maneuver chart data...
Loading historical data...
Loading historical data...
Loading historical data...
Loading historical data...
Loading historical data...
Loading historical data...
Loading historical data...

STARLINK-32023 Visibility forecast

Observer location: undefined°, undefined

Span
Click to sort rows by Start time (UTC) header in descending order
Start Az.
Max El. time (UTC)
Max El. Az.
Max El.
End time (UTC)
End Az.
6 mins2024-12-21 17:43:57.700Z208.993° SW2024-12-21 17:46:57.700Z137.513° SSE37.026°2024-12-21 17:49:57.700Z61.962° ENE
4 mins2024-12-21 19:22:57.700Z293.342° NW2024-12-21 19:24:57.700Z342.387° N21.655°2024-12-21 19:26:57.700Z22.202° NNE
5 mins2024-12-22 00:17:57.700Z331.095° NNW2024-12-22 00:19:57.700Z26.537° NE33.44°2024-12-22 00:22:57.700Z103.44° ESE
4 mins2024-12-22 01:55:57.700Z262.886° W2024-12-22 01:56:57.700Z240.749° WSW19.866°2024-12-22 01:59:57.700Z180.458° SSW
|